EW9827 Weather Reports


time (UTC)temp
F
wind
direction
speed
knots
gust
knots
rain 1hr
in
rain 24hr
in
rain mn
in
humidity
%
barometer
mb
20260507184523 53 94 5.2 12.2 0.00 0.00 0.00 48 1011.7
20260507183022 54 94 5.2 12.2 0.00 0.00 0.00 48 1011.8
20260507181519 52 94 5.2 11.3 0.00 0.00 0.00 50 1011.9
20260507180036 53 94 5.2 14.8 0.00 0.00 0.00 50 1011.9
20260507174520 54 94 0.9 11.3 0.00 0.00 0.00 48 1012.0
20260507173023 53 94 5.2 8.7 0.00 0.00 0.00 48 1012.2
20260507171512 50 94 4.3 12.2 0.00 0.00 0.00 54 1012.5
20260507170030 50 94 4.3 11.3 0.00 0.00 0.00 51 1012.6
20260507164512 51 94 5.2 10.4 0.00 0.00 0.00 51 1012.8
20260507163010 53 94 2.6 11.3 0.00 0.00 0.00 54 1012.9
20260507161544 51 94 2.6 9.6 0.00 0.00 0.00 55 1013.0
20260507160038 50 94 3.5 13.0 0.00 0.00 0.00 49 1013.1
20260507154534 50 94 2.6 9.6 0.00 0.00 0.00 60 1013.2
20260507153032 50 94 1.7 10.4 0.00 0.00 0.00 52 1013.5
20260507151529 49 94 1.7 7.0 0.00 0.01 0.00 55 1013.7
20260507150028 49 94 1.7 6.1 0.00 0.01 0.00 60 1013.7
20260507143106 49 94 7.0 11.3 0.00 0.01 0.00 64 1014.0
20260507141557 49 94 1.7 6.1 0.00 0.04 0.00 60 1014.2
20260507140051 47 94 1.7 6.1 0.00 0.04 0.00 62 1014.4
20260507134547 46 94 2.6 9.6 0.00 0.04 0.00 63 1014.4
20260507133048 45 94 1.7 7.8 0.00 0.04 0.00 63 1014.3
20260507131549 44 94 0.0 6.1 0.00 0.07 0.00 65 1014.2
20260507130057 42 94 2.6 6.1 0.00 0.07 0.00 71 1014.3
20260507124541 40 94 0.9 3.5 0.00 0.07 0.00 76 1014.3
20260507123040 38 94 0.9 3.5 0.00 0.07 0.00 82 1014.4
20260507121539 37 94 0.9 2.6 0.00 0.15 0.00 84 1014.1
20260507120037 35 94 0.0 0.0 0.00 0.15 0.00 87 1014.2
20260507114536 35 94 0.0 0.0 0.00 0.15 0.00 88 1014.1
20260507113035 33 94 0.0 0.0 0.00 0.15 0.00 90 1014.1
20260507111534 32 94 0.0 0.0 0.00 0.22 0.00 91 1013.9
20260507110005 31 94 0.0 0.0 0.00 0.22 0.00 92 1013.9
20260507104505 31 94 0.0 0.0 0.00 0.22 0.00 91 1013.7
20260507103046 31 94 0.0 0.0 0.00 0.22 0.00 90 1013.6
20260507101535 31 94 0.0 0.0 0.00 0.31 0.00 90 1013.5
20260507100030 31 94 0.0 0.0 0.00 0.31 0.00 90 1013.4
20260507094531 32 94 0.0 0.0 0.00 0.31 0.00 86 1013.4
20260507093028 32 94 0.0 1.7 0.00 0.31 0.00 88 1013.3
20260507091536 32 94 0.0 0.9 0.00 0.35 0.00 89 1013.4
20260507090024 32 94 0.0 1.7 0.00 0.35 0.00 88 1013.3
20260507084536 33 94 0.0 0.9 0.00 0.35 0.00 87 1013.2
20260507083018 33 94 0.0 0.9 0.00 0.35 0.00 87 1013.4
20260507081517 34 94 0.0 0.9 0.00 0.43 0.00 87 1013.5
20260507080013 34 94 0.0 0.9 0.00 0.43 0.00 86 1013.4
20260507074512 34 94 0.0 0.9 0.00 0.43 0.00 86 1013.4
20260507073012 34 94 0.0 0.9 0.00 0.43 0.00 86 1013.2
20260507071509 34 94 0.0 1.7 0.00 0.52 0.00 85 1013.2
20260507070055 35 94 0.0 1.7 0.00 0.52 0.00 84 1013.2
20260507064541 35 94 0.0 2.6 0.00 0.52 0.00 84 1013.4
20260507063004 36 94 0.9 2.6 0.00 0.52 0.00 82 1013.4
20260507061559 38 94 0.9 2.6 0.00 0.54 0.00 80 1013.4
20260507060101 38 94 2.6 5.2 0.00 0.54 0.00 78 1013.7
20260507054610 39 94 2.6 5.2 0.00 0.54 0.00 76 1013.7
20260507053103 39 94 1.7 5.2 0.00 0.54 0.00 77 1013.7
20260507051556 39 94 1.7 3.5 0.00 0.54 0.00 75 1013.7
20260507050051 39 94 1.7 5.2 0.00 0.54 0.00 76 1013.8
20260507044553 39 94 1.7 5.2 0.00 0.54 0.00 76 1014.0
20260507043043 39 94 1.7 6.1 0.00 0.54 0.00 76 1013.7
20260507041552 40 94 2.6 7.8 0.00 0.54 0.00 74 1013.6
20260507040041 40 94 2.6 7.0 0.00 0.54 0.00 74 1013.4
20260507034538 40 94 3.5 7.0 0.00 0.54 0.00 74 1013.4
20260507033033 40 94 3.5 7.0 0.00 0.54 0.00 74 1013.6
20260507031532 40 94 1.7 5.2 0.00 0.54 0.00 74 1013.5
20260507030026 40 94 0.0 3.5 0.00 0.54 0.00 75 1013.3
20260507024532 40 94 0.9 3.5 0.00 0.54 0.00 73 1013.2
20260507023025 40 94 0.9 0.0 0.00 0.00 0.00 74 1013.2
20260507021530 40 94 0.9 3.5 0.00 0.54 0.00 74 1013.0
20260507020020 41 94 0.9 4.3 0.00 0.54 0.00 72 1013.3
20260507014518 41 94 1.7 6.1 0.00 0.54 0.00 73 1013.2
20260507013015 42 94 0.9 4.3 0.00 0.54 0.00 73 1013.3
20260507011521 42 94 1.7 5.2 0.00 0.54 0.00 72 1013.5
20260507010018 42 94 0.9 5.2 0.00 0.54 0.00 73 1013.3
20260507004508 42 94 2.6 8.7 0.00 0.54 0.00 70 1013.2
20260507003007 42 94 2.6 5.2 0.00 0.54 0.00 71 1013.3
20260507001505 42 94 2.6 5.2 0.00 0.54 0.00 70 1013.1
20260507000002 43 94 4.3 12.2 0.00 0.54 0.00 68 1012.6
20260506234618 43 94 5.2 9.6 0.00 0.54 0.00 68 1012.5
20260506233053 44 94 3.5 12.2 0.00 0.54 0.00 68 1011.9
20260506231549 45 94 4.3 13.0 0.00 0.54 0.00 72 1011.5
20260506230145 46 94 2.6 5.2 0.00 0.54 0.00 83 1011.6
20260506224541 46 94 2.6 7.0 0.00 0.54 0.00 83 1011.2
20260506223040 46 94 1.7 5.2 0.00 0.54 0.00 85 1011.2
20260506221550 46 94 1.7 4.3 0.00 0.54 0.00 87 1011.1
20260506220044 46 94 0.9 4.3 0.00 0.54 0.00 88 1011.1
20260506214534 46 94 1.7 5.2 0.00 0.54 0.00 89 1010.8
20260506213040 45 94 1.7 6.1 0.00 0.54 0.00 88 1010.4
20260506211540 46 94 1.7 4.3 0.00 0.54 0.00 88 1010.2
20260506210039 46 94 1.7 6.1 0.00 0.54 0.00 88 1010.2
20260506204532 46 94 3.5 7.8 0.00 0.54 0.00 88 1010.3
20260506203024 46 94 3.5 7.8 0.00 0.54 0.00 89 1010.2
20260506201527 46 94 4.3 11.3 0.00 0.54 0.00 88 1010.0
20260506200021 46 94 2.6 9.6 0.00 0.54 0.00 90 1009.8
20260506194517 46 94 4.3 9.6 0.00 0.54 0.00 91 1009.7
20260506193015 47 94 4.3 10.4 0.00 0.54 0.00 91 1009.3
20260506191611 47 94 5.2 11.3 0.00 0.54 0.54 91 1009.3
20260506190010 47 94 2.6 7.0 0.00 0.54 0.54 92 1009.2